This demonstration page uses our WeatherBlox Daily Observations layout. Learn more.

Left ArrowRight Arrow

Hourly Observations for July 26, 2018

Temp ( °F °C ) Dew Point ( °F °C ) Humidity (%) Winds ( mph kmh ) Pressure ( in mb ) Visibility ( mi km ) Precip ( " mm )
12:59 am 00:59 Mostly Cloudy 74 23.3 70 21.1 88 88 SW 8 13 29.91 1013 10 16 0.00 0.00
1:59 am 01:59 Mostly Cloudy 73 22.8 69 20.6 87 87 SW 7 11 29.90 1013 10 16 0.00 0.00
2:59 am 02:59 Mostly Cloudy 71 21.7 69 20.6 94 94 SSW 6 9 29.90 1013 10 16 0.00 0.00
3:27 am 03:27 Mostly Cloudy 71 21.7 69 20.6 94 94 SW 7 11 29.91 1013 10 16 0.00 0.00
3:59 am 03:59 Mostly Cloudy 71 21.7 69 20.6 94 94 SW 7 11 29.91 1013 10 16 0.00 0.00
4:59 am 04:59 Mostly Cloudy 72 22.2 69 20.6 91 91 SW 7 11 29.91 1013 10 16 0.00 0.00
5:59 am 05:59 Partly Cloudy 71 21.7 69 20.6 94 94 SW 5 7 29.92 1013 10 16 0.00 0.00
6:12 am 06:12 Partly Cloudy 71 21.7 69 20.6 94 94 SW 5 7 29.94 1014 9 14 0.00 0.00
6:17 am 06:17 Mostly Cloudy 71 21.7 69 20.6 94 94 VRB 5 7 29.94 1014 8 13 0.00 0.00
6:43 am 06:43 Mostly Cloudy with Mist and Fog 72 22.2 69 20.6 91 91 SSW 5 7 29.94 1014 6 10 0.00 0.00
6:59 am 06:59 Mostly Cloudy with Mist and Fog 72 22.2 70 21.1 94 94 SW 6 9 29.93 1014 6 10 0.00 0.00
7:11 am 07:11 Mostly Cloudy with Mist and Fog 72 22.2 70 21.1 94 94 SW 6 9 29.94 1014 6 10 0.00 0.00
7:59 am 07:59 Mostly Cloudy with Mist and Fog 72 22.2 70 21.1 94 94 SSW 6 9 29.96 1014 6 10 0.00 0.00
8:59 am 08:59 Mostly Cloudy 74 23.3 70 21.1 88 88 SW 8 13 29.97 1015 9 14 0.00 0.00
9:06 am 09:06 Cloudy 74 23.3 71 21.7 91 91 SW 8 13 29.97 1015 9 14 0.00 0.00
9:59 am 09:59 Cloudy 75 23.9 71 21.7 88 88 SW 8 13 29.97 1015 9 14 0.00 0.00
10:59 am 10:59 Mostly Cloudy 77 25 71 21.7 82 82 SW 6 9 29.97 1015 9 14 0.00 0.00
11:34 am 11:34 Partly Cloudy 79 26.1 71 21.7 77 77 WSW 8 13 29.97 1015 9 14 0.00 0.00
11:59 am 11:59 Partly Cloudy 80 26.7 71 21.7 74 74 W 7 11 29.98 1015 9 14 0.00 0.00
12:59 pm 12:59 Partly Cloudy 83 28.3 71 21.7 67 67 W 7 11 29.97 1015 9 14 0.00 0.00
1:59 pm 13:59 Partly Cloudy 84 28.9 72 22.2 67 67 W 6 9 29.96 1015 10 16 0.00 0.00
2:59 pm 14:59 Partly Cloudy 86 30 72 22.2 63 63 WNW 7 11 29.96 1015 10 16 0.00 0.00
3:59 pm 15:59 Partly Cloudy 86 30 71 21.7 61 61 WSW 6 9 29.95 1014 10 16 0.00 0.00
4:59 pm 16:59 Partly Cloudy 88 31.1 71 21.7 57 57 VRB 3 6 29.95 1014 10 16 0.00 0.00
5:59 pm 17:59 Partly Cloudy 85 29.4 73 22.8 68 68 E 6 9 29.95 1014 10 16 0.00 0.00
6:59 pm 18:59 Partly Cloudy 83 28.3 72 22.2 70 70 E 7 11 29.95 1014 10 16 0.00 0.00
7:59 pm 19:59 Partly Cloudy 83 28.3 74 23.3 74 74 ESE 5 7 29.96 1015 10 16 0.00 0.00
8:59 pm 20:59 Partly Cloudy 80 26.7 73 22.8 79 79 ESE 6 9 29.97 1015 10 16 0.00 0.00
9:59 pm 21:59 Partly Cloudy 78 25.6 73 22.8 85 85 SE 3 6 29.98 1015 10 16 0.00 0.00
10:59 pm 22:59 Partly Cloudy 78 25.6 74 23.3 87 87 S 5 7 29.99 1016 9 14 0.00 0.00
11:59 pm 23:59 Mostly Cloudy 80 26.7 74 23.3 82 82 SSW 6 9 29.99 1016 9 14 0.00 0.00

Powered by AerisWeather